Tracking 35280 objects as of 7-Sep-2026
HD Live streaming from Space Station
objects crossing your sky now

ONEWEB-0027

Track ONEWEB-0027 now!
10-day predictions
ONEWEB-0027 is classified as:


NORAD ID: 45432
Int'l Code: 2020-020J
Launch date: March 21, 2020
Source: United Kingdom (UK)
Launch site: TYURATAM MISSILE AND SPACE COMPLEX (TTMTR)
Your satellite tracking list
Your tracking list is empty




NASA's NSSDC Master Catalog

Two Line Element Set (TLE):
1 45432U 20020J   26250.57580473 -.00000384  00000-0 -10230-2 0  9991
2 45432  87.9207 349.5017 0001491  96.8184 263.3118 13.17649549317209
Source of the keplerian elements: AFSPC